����,���ϕ���(m/s),���ϕ���,�ő�u�ԕ���(m/s),�ő啗��������,�C��(��),���x(%),10���Ԉړ��ώZ�J��(mm),1���Ԉړ��ώZ�J��(mm),���J��(mm),�݌v�J��(mm)
2021-12-13T00:00:00+09:00,2.6,�k��,5.8,�k��,8.6,78.2,0,0,0,0
2021-12-13T00:01:00+09:00,2.6,�k��,5.8,�k��,8.6,78.7,0,0,0,0
2021-12-13T00:02:00+09:00,2.6,�k��,5.8,�k��,8.6,78.6,0,0,0,0
2021-12-13T00:03:00+09:00,2.7,�k��,5.8,�k��,8.6,78.7,0,0,0,0
2021-12-13T00:04:00+09:00,2.6,�k��,5.8,�k��,8.6,78.9,0,0,0,0
2021-12-13T00:05:00+09:00,2.5,�k��,5.8,�k��,8.6,79.1,0,0,0,0
2021-12-13T00:06:00+09:00,2.4,�k��,5.8,�k��,8.4,79.3,0,0,0,0
2021-12-13T00:07:00+09:00,2.2,�k��,4.2,���k��,8.4,80.6,0,0,0,0
2021-12-13T00:08:00+09:00,2,�k�k��,4,�k��,8.2,82,0,0,0,0
2021-12-13T00:09:00+09:00,1.9,�k�k��,4,�k��,8.2,83.6,0,0,0,0
2021-12-13T00:10:00+09:00,1.7,�k,4,�k��,8.2,84.8,0,0,0,0
2021-12-13T00:11:00+09:00,1.6,�k,4,�k��,8.1,85.7,0,0,0,0
2021-12-13T00:12:00+09:00,1.3,�k�k��,3.2,�k��,8.1,86.2,0,0,0,0
2021-12-13T00:13:00+09:00,1.1,�k�k��,2.5,�k��,8.1,86.6,0,0,0,0
2021-12-13T00:14:00+09:00,1,�k�k��,2,�k�k��,8,86.7,0,0,0,0
2021-12-13T00:15:00+09:00,0.9,�k�k��,2,�k�k��,7.9,86.8,0,0,0,0
2021-12-13T00:16:00+09:00,0.9,�k��,1.7,���k��,7.9,87.7,0,0,0,0
2021-12-13T00:17:00+09:00,0.9,�k��,1.6,�k�k��,7.9,88.1,0,0,0,0
2021-12-13T00:18:00+09:00,0.8,�k��,1.6,�k�k��,8,88.6,0,0,0,0
2021-12-13T00:19:00+09:00,0.8,�k��,1.5,�k��,8,88.7,0,0,0,0
2021-12-13T00:20:00+09:00,0.8,�k��,2.1,�k�k��,8,88.5,0,0,0,0
2021-12-13T00:21:00+09:00,0.9,�k�k��,2.1,�k�k��,7.9,88,0,0,0,0
2021-12-13T00:22:00+09:00,1,�k�k��,2.1,�k�k��,7.8,88.1,0,0,0,0
2021-12-13T00:23:00+09:00,1,�k�k��,2.1,�k�k��,7.7,87.9,0,0,0,0
2021-12-13T00:24:00+09:00,1,�k�k��,2.1,�k�k��,7.6,88.4,0,0,0,0
2021-12-13T00:25:00+09:00,1,�k�k��,2.1,�k�k��,7.5,89,0,0,0,0
2021-12-13T00:26:00+09:00,1,�k,2.1,�k�k��,7.5,89.7,0,0,0,0
2021-12-13T00:27:00+09:00,1.1,�k,2.1,�k�k��,7.6,90.5,0,0,0,0
2021-12-13T00:28:00+09:00,1.1,�k�k��,2.1,�k�k��,7.6,91,0,0,0,0
2021-12-13T00:29:00+09:00,1.1,�k�k��,2.1,�k�k��,7.7,91.4,0,0,0,0
2021-12-13T00:30:00+09:00,1,�k�k��,2,�k,7.7,91.4,0,0,0,0
2021-12-13T00:31:00+09:00,1,�k�k��,2,�k,7.6,91.4,0,0,0,0
2021-12-13T00:32:00+09:00,0.9,�k�k��,1.5,�k�k��,7.6,90.9,0,0,0,0
2021-12-13T00:33:00+09:00,1,�k�k��,2.4,�k�k��,7.6,90.9,0,0,0,0
2021-12-13T00:34:00+09:00,1.2,�k�k��,2.5,�k�k��,7.7,91.2,0,0,0,0
2021-12-13T00:35:00+09:00,1.2,�k�k��,2.5,�k�k��,7.7,91,0,0,0,0
2021-12-13T00:36:00+09:00,1.3,�k�k��,4.1,���k��,7.8,90.2,0,0,0,0
2021-12-13T00:37:00+09:00,1.5,�k�k��,4.3,���k��,8.2,89.2,0,0,0,0
2021-12-13T00:38:00+09:00,1.8,�k�k��,5.4,�k��,8.3,85.6,0,0,0,0
2021-12-13T00:39:00+09:00,2.1,�k�k��,5.4,�k��,8.3,83.1,0,0,0,0
2021-12-13T00:40:00+09:00,2.4,�k��,5.4,�k��,8.3,81.2,0,0,0,0
2021-12-13T00:41:00+09:00,2.5,�k��,5.4,�k��,8.2,80.8,0,0,0,0
2021-12-13T00:42:00+09:00,2.8,�k�k��,5.4,�k��,8.2,81.6,0,0,0,0
2021-12-13T00:43:00+09:00,2.9,�k��,5.4,�k��,8.2,81.3,0,0,0,0
2021-12-13T00:44:00+09:00,3,�k��,5.4,�k��,8.2,80.1,0,0,0,0
2021-12-13T00:45:00+09:00,3.3,�k��,5.4,�k��,8.2,80.1,0,0,0,0
2021-12-13T00:46:00+09:00,3.5,�k��,6.6,���k��,8.3,78.5,0,0,0,0
2021-12-13T00:47:00+09:00,3.5,�k��,6.6,���k��,8.3,77.4,0,0,0,0
2021-12-13T00:48:00+09:00,3.5,�k��,6.6,���k��,8.3,76.5,0,0,0,0
2021-12-13T00:49:00+09:00,3.4,�k��,6.6,���k��,8.2,76.5,0,0,0,0
2021-12-13T00:50:00+09:00,3.5,�k��,6.6,���k��,8.1,77.8,0,0,0,0
2021-12-13T00:51:00+09:00,3.6,�k��,6.6,���k��,8.1,78.3,0,0,0,0
2021-12-13T00:52:00+09:00,3.5,�k��,6.6,���k��,8.1,78.4,0,0,0,0
2021-12-13T00:53:00+09:00,3.3,�k��,6.6,���k��,8,79,0,0,0,0
2021-12-13T00:54:00+09:00,3.3,�k��,6.6,���k��,7.9,79.6,0,0,0,0
2021-12-13T00:55:00+09:00,3.2,�k��,6.6,���k��,7.9,80.1,0,0,0,0
2021-12-13T00:56:00+09:00,3,�k��,5.5,�k,8,79.9,0,0,0,0
2021-12-13T00:57:00+09:00,3,�k�k��,5.5,�k,7.9,79.2,0,0,0,0
2021-12-13T00:58:00+09:00,3,�k�k��,5.5,�k,7.9,79.3,0,0,0,0
2021-12-13T00:59:00+09:00,3.1,�k�k��,5.5,�k,7.9,79,0,0,0,0
2021-12-13T01:00:00+09:00,2.9,�k��,4.8,�k�k��,7.9,79.6,0,0,0,0
2021-12-13T01:01:00+09:00,2.9,�k��,4.8,�k�k��,7.8,79.9,0,0,0,0
2021-12-13T01:02:00+09:00,3,�k��,6.2,���k��,7.8,80.2,0,0,0,0
2021-12-13T01:03:00+09:00,3.1,�k��,6.4,���k��,7.8,79.5,0,0,0,0
2021-12-13T01:04:00+09:00,3.1,�k��,6.4,���k��,7.7,79.3,0,0,0,0
2021-12-13T01:05:00+09:00,3.3,�k��,6.4,���k��,7.8,79.2,0,0,0,0
2021-12-13T01:06:00+09:00,3.3,�k��,6.4,���k��,7.8,78.7,0,0,0,0
2021-12-13T01:07:00+09:00,3.5,�k��,6.7,�k��,7.7,78.3,0,0,0,0
2021-12-13T01:08:00+09:00,3.5,�k��,6.7,�k��,7.7,78.1,0,0,0,0
2021-12-13T01:09:00+09:00,3.5,�k��,6.7,�k��,7.7,78.3,0,0,0,0
2021-12-13T01:10:00+09:00,3.7,�k��,6.7,�k��,7.7,78.5,0,0,0,0
2021-12-13T01:11:00+09:00,3.8,�k��,6.7,�k��,7.7,78.3,0,0,0,0
2021-12-13T01:12:00+09:00,3.7,�k��,6.7,�k��,7.7,77.9,0,0,0,0
2021-12-13T01:13:00+09:00,3.6,�k��,6.7,�k��,7.7,77.8,0,0,0,0
2021-12-13T01:14:00+09:00,3.6,�k��,6.7,�k��,7.7,77.9,0,0,0,0
2021-12-13T01:15:00+09:00,3.5,�k��,6.7,�k��,7.6,78.7,0,0,0,0
2021-12-13T01:16:00+09:00,3.5,�k��,6.7,�k��,7.6,79.2,0,0,0,0
2021-12-13T01:17:00+09:00,3.1,�k��,6.6,���k��,7.5,79.7,0,0,0,0
2021-12-13T01:18:00+09:00,3,�k��,6.6,���k��,7.5,80.3,0,0,0,0
2021-12-13T01:19:00+09:00,2.9,�k��,6.6,���k��,7.5,80.5,0,0,0,0
2021-12-13T01:20:00+09:00,2.6,�k�k��,6.4,���k��,7.5,80.9,0,0,0,0
2021-12-13T01:21:00+09:00,2.4,�k�k��,4.7,�k,7.4,81.5,0,0,0,0
2021-12-13T01:22:00+09:00,2.2,�k�k��,4.7,�k,7.5,81.9,0,0,0,0
2021-12-13T01:23:00+09:00,2.3,�k�k��,4.7,�k,7.4,82,0,0,0,0
2021-12-13T01:24:00+09:00,2.2,�k�k��,4.7,�k,7.4,82.1,0,0,0,0
2021-12-13T01:25:00+09:00,2,�k,4,�k�k��,7.4,82.4,0,0,0,0
2021-12-13T01:26:00+09:00,1.9,�k,3.6,�k�k��,7.4,82.4,0,0,0,0
2021-12-13T01:27:00+09:00,1.8,�k,3.6,�k�k��,7.4,82.2,0,0,0,0
2021-12-13T01:28:00+09:00,2,�k,4.9,�k,7.4,82,0,0,0,0
2021-12-13T01:29:00+09:00,2.1,�k,4.9,�k,7.4,81.6,0,0,0,0
2021-12-13T01:30:00+09:00,2.1,�k,4.9,�k,7.4,81.8,0,0,0,0
2021-12-13T01:31:00+09:00,2.1,�k,4.9,�k,7.3,82.4,0,0,0,0
2021-12-13T01:32:00+09:00,2.2,�k,4.9,�k,7.3,82.5,0,0,0,0
2021-12-13T01:33:00+09:00,2.3,�k,4.9,�k,7.3,82,0,0,0,0
2021-12-13T01:34:00+09:00,2.2,�k,4.9,�k,7.3,82.2,0,0,0,0
2021-12-13T01:35:00+09:00,2.3,�k,4.9,�k,7.3,83.1,0,0,0,0
2021-12-13T01:36:00+09:00,2.3,�k,4.9,�k,7.3,83.4,0,0,0,0
2021-12-13T01:37:00+09:00,2.5,�k,4.9,�k,7.2,83.2,0,0,0,0
2021-12-13T01:38:00+09:00,2.3,�k,4.6,�k�k��,7.2,83.4,0,0,0,0
2021-12-13T01:39:00+09:00,2.2,�k,4.6,�k�k��,7.2,83.8,0,0,0,0
2021-12-13T01:40:00+09:00,2.2,�k,4.6,�k�k��,7.3,84,0,0,0,0
2021-12-13T01:41:00+09:00,2.3,�k�k��,4.6,�k�k��,7.3,83.2,0,0,0,0
2021-12-13T01:42:00+09:00,2.1,�k�k��,4,�k,7.3,82.5,0,0,0,0
2021-12-13T01:43:00+09:00,2,�k,4,�k,7.2,82.4,0,0,0,0
2021-12-13T01:44:00+09:00,2.1,�k,4,�k,7.2,82.9,0,0,0,0
2021-12-13T01:45:00+09:00,2.2,�k�k��,4,�k,7.2,83.1,0,0,0,0
2021-12-13T01:46:00+09:00,2.2,�k�k��,3.9,�k,7.2,83,0,0,0,0
2021-12-13T01:47:00+09:00,2.1,�k�k��,3.9,�k,7.3,82.4,0,0,0,0
2021-12-13T01:48:00+09:00,2.2,�k�k��,3.9,�k,7.3,81.5,0,0,0,0
2021-12-13T01:49:00+09:00,2.3,�k�k��,3.9,�k,7.3,81.3,0,0,0,0
2021-12-13T01:50:00+09:00,2.3,�k�k��,3.9,�k,7.3,82,0,0,0,0
2021-12-13T01:51:00+09:00,2.3,�k�k��,3.9,�k,7.2,82.4,0,0,0,0
2021-12-13T01:52:00+09:00,2.2,�k�k��,3.9,�k,7.2,82.6,0,0,0,0
2021-12-13T01:53:00+09:00,2.2,�k�k��,3.9,�k,7.2,82.9,0,0,0,0
2021-12-13T01:54:00+09:00,2.1,�k�k��,3.3,�k�k��,7.2,83.2,0,0,0,0
2021-12-13T01:55:00+09:00,2.1,�k��,3.1,�k�k��,7.2,83.2,0,0,0,0
2021-12-13T01:56:00+09:00,2.1,�k�k��,3.1,�k�k��,7.2,83.1,0,0,0,0
2021-12-13T01:57:00+09:00,2,�k�k��,3.1,�k�k��,7.2,82.9,0,0,0,0
2021-12-13T01:58:00+09:00,2,�k�k��,3.3,�k�k��,7.1,83.1,0,0,0,0
2021-12-13T01:59:00+09:00,2,�k�k��,3.8,�k�k��,7.1,83.5,0,0,0,0
2021-12-13T02:00:00+09:00,2,�k�k��,3.8,�k�k��,7.1,83.9,0,0,0,0
2021-12-13T02:01:00+09:00,2.1,�k�k��,4,�k��,7.1,84.1,0,0,0,0
2021-12-13T02:02:00+09:00,2.2,�k�k��,4.5,�k��,7.1,83.6,0,0,0,0
2021-12-13T02:03:00+09:00,2.3,�k��,4.5,�k��,7.2,82.8,0,0,0,0
2021-12-13T02:04:00+09:00,2.4,�k�k��,4.5,�k��,7.2,82.6,0,0,0,0
2021-12-13T02:05:00+09:00,2.4,�k�k��,4.5,�k��,7.1,83,0,0,0,0
2021-12-13T02:06:00+09:00,2.4,�k�k��,4.5,�k��,7.1,83.3,0,0,0,0
2021-12-13T02:07:00+09:00,2.4,�k�k��,4.5,�k��,7,83.6,0,0,0,0
2021-12-13T02:08:00+09:00,2.4,�k�k��,4.5,�k��,7,83.9,0,0,0,0
2021-12-13T02:09:00+09:00,2.4,�k�k��,4.5,�k��,7,84,0,0,0,0
2021-12-13T02:10:00+09:00,2.4,�k�k��,4.5,�k��,7,84,0,0,0,0
2021-12-13T02:11:00+09:00,2.4,�k�k��,4.5,�k��,6.9,83.9,0,0,0,0
2021-12-13T02:12:00+09:00,2.3,�k�k��,3.9,�k�k��,6.9,83.9,0,0,0,0
2021-12-13T02:13:00+09:00,2.3,�k�k��,3.9,�k�k��,6.9,84.2,0,0,0,0
2021-12-13T02:14:00+09:00,2.3,�k�k��,3.9,�k�k��,7,84.6,0,0,0,0
2021-12-13T02:15:00+09:00,2.2,�k�k��,3.9,�k�k��,6.9,85.2,0,0,0,0
2021-12-13T02:16:00+09:00,2.2,�k�k��,3.9,�k�k��,6.9,85.9,0,0,0,0
2021-12-13T02:17:00+09:00,2.1,�k�k��,3.9,�k�k��,6.9,86.7,0,0,0,0
2021-12-13T02:18:00+09:00,2,�k�k��,3.9,�k�k��,6.8,87.3,0,0,0,0
2021-12-13T02:19:00+09:00,1.8,�k�k��,3.5,�k��,6.7,87.7,0,0,0,0
2021-12-13T02:20:00+09:00,1.7,�k�k��,3.3,�k��,6.7,88.1,0,0,0,0
2021-12-13T02:21:00+09:00,1.6,�k�k��,3.3,�k��,6.8,88.7,0,0,0,0
2021-12-13T02:22:00+09:00,1.4,�k�k��,3.2,�k�k��,6.8,89.1,0,0,0,0
2021-12-13T02:23:00+09:00,1.4,�k,3.7,�k,6.8,89.3,0,0,0,0
2021-12-13T02:24:00+09:00,1.5,�k,3.7,�k,6.9,89.1,0,0,0,0
2021-12-13T02:25:00+09:00,1.6,�k,4.1,�k�k��,7,88.2,0,0,0,0
2021-12-13T02:26:00+09:00,1.6,�k,4.1,�k�k��,7,86.6,0,0,0,0
2021-12-13T02:27:00+09:00,1.7,�k,4.1,�k�k��,7,85.3,0,0,0,0
2021-12-13T02:28:00+09:00,1.8,�k,4.1,�k�k��,6.9,85.5,0,0,0,0
2021-12-13T02:29:00+09:00,1.8,�k,4.1,�k�k��,6.9,85.9,0,0,0,0
2021-12-13T02:30:00+09:00,1.8,�k�k��,4.1,�k�k��,6.9,86.1,0,0,0,0
2021-12-13T02:31:00+09:00,1.8,�k�k��,4.1,�k�k��,6.9,86.1,0,0,0,0
2021-12-13T02:32:00+09:00,1.8,�k�k��,4.1,�k�k��,6.9,86.5,0,0,0,0
2021-12-13T02:33:00+09:00,1.7,�k�k��,4.1,�k�k��,6.9,87,0,0,0,0
2021-12-13T02:34:00+09:00,1.6,�k�k��,4.1,�k�k��,6.9,87.4,0,0,0,0
2021-12-13T02:35:00+09:00,1.4,�k�k��,3.9,�k�k��,6.9,87.4,0,0,0,0
2021-12-13T02:36:00+09:00,1.3,�k,2.7,�k�k��,6.8,86.9,0,0,0,0
2021-12-13T02:37:00+09:00,1.2,�k,2.4,�k�k��,6.8,86.4,0,0,0,0
2021-12-13T02:38:00+09:00,1.2,�k,2.4,�k�k��,6.8,86.4,0,0,0,0
2021-12-13T02:39:00+09:00,1.1,�k,2.4,�k�k��,6.8,86.7,0,0,0,0
2021-12-13T02:40:00+09:00,1.2,�k,2.8,�k�k��,6.9,87.1,0,0,0,0
2021-12-13T02:41:00+09:00,1.3,�k,3.9,�k,6.9,87,0,0,0,0
2021-12-13T02:42:00+09:00,1.3,�k,4.4,�k�k��,7,86.3,0,0,0,0
2021-12-13T02:43:00+09:00,1.4,�k,4.4,�k�k��,7,85.3,0,0,0,0
2021-12-13T02:44:00+09:00,1.5,�k,4.4,�k�k��,7.1,83.2,0,0,0,0
2021-12-13T02:45:00+09:00,1.6,�k,4.4,�k�k��,7.2,81.7,0,0,0,0
2021-12-13T02:46:00+09:00,1.6,�k,4.4,�k�k��,7.1,80.7,0,0,0,0
2021-12-13T02:47:00+09:00,1.7,�k,4.4,�k�k��,7.1,80.3,0,0,0,0
2021-12-13T02:48:00+09:00,1.7,�k,4.4,�k�k��,7,80.4,0,0,0,0
2021-12-13T02:49:00+09:00,1.7,�k,4.4,�k�k��,7,81.4,0,0,0,0
2021-12-13T02:50:00+09:00,1.7,�k,4.4,�k�k��,6.9,82.1,0,0,0,0
2021-12-13T02:51:00+09:00,1.5,�k,4.4,�k�k��,6.9,82.4,0,0,0,0
2021-12-13T02:52:00+09:00,1.4,�k,3.5,�k,6.9,82.8,0,0,0,0
2021-12-13T02:53:00+09:00,1.3,�k,3,�k,6.9,83.1,0,0,0,0
2021-12-13T02:54:00+09:00,1.2,�k,3,�k,6.9,83.4,0,0,0,0
2021-12-13T02:55:00+09:00,1.1,�k,2.3,�k�k��,6.8,83.8,0,0,0,0
2021-12-13T02:56:00+09:00,1.1,�k,2.3,�k�k��,6.9,84.1,0,0,0,0
2021-12-13T02:57:00+09:00,1,�k�k��,2.3,�k�k��,6.9,83.3,0,0,0,0
2021-12-13T02:58:00+09:00,1,�k�k��,2.3,�k�k��,6.9,83.3,0,0,0,0
2021-12-13T02:59:00+09:00,1,�k�k��,2,�k��,6.8,83.8,0,0,0,0
2021-12-13T03:00:00+09:00,0.9,�k�k��,2,�k��,6.8,84.2,0,0,0,0
2021-12-13T03:01:00+09:00,0.9,�k�k��,2,�k��,6.8,84.7,0,0,0,0
2021-12-13T03:02:00+09:00,0.9,�k�k��,2,�k��,6.8,84.7,0,0,0,0
2021-12-13T03:03:00+09:00,1,�k�k��,2.3,�k�k��,6.8,84.6,0,0,0,0
2021-12-13T03:04:00+09:00,1.1,�k�k��,2.3,�k�k��,6.8,84.3,0,0,0,0
2021-12-13T03:05:00+09:00,1.1,�k�k��,2.3,�k�k��,6.8,84.4,0,0,0,0
2021-12-13T03:06:00+09:00,1,�k�k��,2.3,�k�k��,6.7,84.8,0,0,0,0
2021-12-13T03:07:00+09:00,1,�k�k��,2.3,�k�k��,6.7,85.4,0,0,0,0
2021-12-13T03:08:00+09:00,0.9,�k�k��,2.3,�k�k��,6.7,86.2,0,0,0,0
2021-12-13T03:09:00+09:00,1,�k�k��,2.3,�k�k��,6.7,87,0,0,0,0
2021-12-13T03:10:00+09:00,1.1,�k�k��,2.3,�k�k��,6.7,87.3,0,0,0,0
2021-12-13T03:11:00+09:00,1.1,�k�k��,2.3,�k�k��,6.6,87.5,0,0,0,0
2021-12-13T03:12:00+09:00,1.2,�k�k��,2.3,�k�k��,6.6,87.6,0,0,0,0
2021-12-13T03:13:00+09:00,1.1,�k�k��,2.1,�k�k��,6.6,87.7,0,0,0,0
2021-12-13T03:14:00+09:00,1.1,�k�k��,2.1,�k�k��,6.7,87.5,0,0,0,0
2021-12-13T03:15:00+09:00,1.1,�k�k��,2.1,�k�k��,6.7,87,0,0,0,0
2021-12-13T03:16:00+09:00,1.1,�k�k��,2.1,�k�k��,6.7,86.5,0,0,0,0
2021-12-13T03:17:00+09:00,1.2,�k�k��,2.3,�k�k��,6.7,86.5,0,0,0,0
2021-12-13T03:18:00+09:00,1.3,�k�k��,2.3,�k�k��,6.8,86.1,0,0,0,0
2021-12-13T03:19:00+09:00,1.3,�k�k��,2.3,�k�k��,6.8,85.3,0,0,0,0
2021-12-13T03:20:00+09:00,1.3,�k�k��,2.3,�k�k��,6.7,85,0,0,0,0
2021-12-13T03:21:00+09:00,1.2,�k�k��,2.3,�k�k��,6.7,84.9,0,0,0,0
2021-12-13T03:22:00+09:00,1.1,�k�k��,2.3,�k�k��,6.6,85.2,0,0,0,0
2021-12-13T03:23:00+09:00,1.1,�k�k��,2.3,�k�k��,6.7,85.9,0,0,0,0
2021-12-13T03:24:00+09:00,1.1,�k�k��,2.3,�k�k��,6.7,86.4,0,0,0,0
2021-12-13T03:25:00+09:00,1.2,�k�k��,2.4,�k,6.7,86.3,0,0,0,0
2021-12-13T03:26:00+09:00,1.2,�k�k��,2.5,�k,6.7,86.1,0,0,0,0
2021-12-13T03:27:00+09:00,1.3,�k,3.2,�k,6.6,86.1,0,0,0,0
2021-12-13T03:28:00+09:00,1.3,�k,3.3,�k�k��,6.6,85.8,0,0,0,0
2021-12-13T03:29:00+09:00,1.3,�k,3.3,�k�k��,6.6,85.5,0,0,0,0
2021-12-13T03:30:00+09:00,1.4,�k,3.3,�k�k��,6.6,85.4,0,0,0,0
2021-12-13T03:31:00+09:00,1.6,�k,3.3,�k�k��,6.6,85.1,0,0,0,0
2021-12-13T03:32:00+09:00,1.7,�k,3.3,�k�k��,6.6,83.9,0,0,0,0
2021-12-13T03:33:00+09:00,1.8,�k�k��,3.3,�k�k��,6.6,82.7,0,0,0,0
2021-12-13T03:34:00+09:00,1.9,�k�k��,3.3,�k�k��,6.6,82.5,0,0,0,0
2021-12-13T03:35:00+09:00,1.9,�k�k��,3.3,�k�k��,6.6,82.7,0,0,0,0
2021-12-13T03:36:00+09:00,2,�k�k��,3.6,�k,6.6,83.1,0,0,0,0
2021-12-13T03:37:00+09:00,2,�k�k��,3.6,�k,6.6,83.4,0,0,0,0
2021-12-13T03:38:00+09:00,1.9,�k�k��,3.6,�k,6.6,83.6,0,0,0,0
2021-12-13T03:39:00+09:00,1.9,�k�k��,3.6,�k,6.6,84,0,0,0,0
2021-12-13T03:40:00+09:00,1.9,�k�k��,3.6,�k,6.5,84.3,0,0,0,0
2021-12-13T03:41:00+09:00,1.8,�k�k��,3.6,�k,6.5,84.6,0,0,0,0
2021-12-13T03:42:00+09:00,1.7,�k,3.6,�k,6.5,85,0,0,0,0
2021-12-13T03:43:00+09:00,1.6,�k,3.6,�k,6.4,85.3,0,0,0,0
2021-12-13T03:44:00+09:00,1.5,�k,3.6,�k,6.4,85.6,0,0,0,0
2021-12-13T03:45:00+09:00,1.6,�k,3.6,�k,6.4,85.8,0,0,0,0
2021-12-13T03:46:00+09:00,1.6,�k,2.9,�k,6.4,85.7,0,0,0,0
2021-12-13T03:47:00+09:00,1.5,�k,2.9,�k,6.4,85.5,0,0,0,0
2021-12-13T03:48:00+09:00,1.7,�k,4.5,�k�k��,6.4,85.7,0,0,0,0
2021-12-13T03:49:00+09:00,1.8,�k,4.5,�k�k��,6.4,85.5,0,0,0,0
2021-12-13T03:50:00+09:00,1.8,�k,4.5,�k�k��,6.4,85,0,0,0,0
2021-12-13T03:51:00+09:00,1.7,�k,4.5,�k�k��,6.4,84.7,0,0,0,0
2021-12-13T03:52:00+09:00,1.8,�k,4.5,�k�k��,6.3,84.6,0,0,0,0
2021-12-13T03:53:00+09:00,1.8,�k,4.5,�k�k��,6.3,84.8,0,0,0,0
2021-12-13T03:54:00+09:00,1.9,�k,4.5,�k�k��,6.3,84.6,0,0,0,0
2021-12-13T03:55:00+09:00,1.9,�k,4.5,�k�k��,6.3,85,0,0,0,0
2021-12-13T03:56:00+09:00,1.9,�k,4.5,�k�k��,6.4,84.9,0,0,0,0
2021-12-13T03:57:00+09:00,2,�k,4.5,�k�k��,6.3,84.6,0,0,0,0
2021-12-13T03:58:00+09:00,1.9,�k,4,�k,6.3,84.4,0,0,0,0
2021-12-13T03:59:00+09:00,1.8,�k,4,�k,6.2,84.6,0,0,0,0
2021-12-13T04:00:00+09:00,1.8,�k,4,�k,6.2,85,0,0,0,0
2021-12-13T04:01:00+09:00,1.9,�k,4,�k,6.2,85.5,0,0,0,0
2021-12-13T04:02:00+09:00,1.9,�k,4,�k,6.2,86,0,0,0,0
2021-12-13T04:03:00+09:00,1.8,�k,4,�k,6.2,86.5,0,0,0,0
2021-12-13T04:04:00+09:00,1.7,�k,4,�k,6.2,87,0,0,0,0
2021-12-13T04:05:00+09:00,1.6,�k,3.3,�k,6.2,87.3,0,0,0,0
2021-12-13T04:06:00+09:00,1.5,�k,3.3,�k,6.2,87.7,0,0,0,0
2021-12-13T04:07:00+09:00,1.4,�k,3,�k,6.2,87.7,0,0,0,0
2021-12-13T04:08:00+09:00,1.3,�k,3,�k,6.2,87.6,0,0,0,0
2021-12-13T04:09:00+09:00,1.3,�k,3,�k,6.2,87.6,0,0,0,0
2021-12-13T04:10:00+09:00,1.2,�k,3,�k,6.2,87.5,0,0,0,0
2021-12-13T04:11:00+09:00,1.2,�k,3,�k,6.2,87.4,0,0,0,0
2021-12-13T04:12:00+09:00,1,�k,2.1,�k�k��,6.2,87.4,0,0,0,0
2021-12-13T04:13:00+09:00,1,�k,2.1,�k�k��,6.2,87.4,0,0,0,0
2021-12-13T04:14:00+09:00,1,�k,2.1,�k�k��,6.1,87.2,0,0,0,0
2021-12-13T04:15:00+09:00,1,�k,2.1,�k�k��,6.2,87.6,0,0,0,0
2021-12-13T04:16:00+09:00,1,�k,2.1,�k�k��,6.1,87.6,0,0,0,0
2021-12-13T04:17:00+09:00,1,�k,2.1,�k�k��,6.1,87.6,0,0,0,0
2021-12-13T04:18:00+09:00,1,�k,2.1,�k�k��,6,87.6,0,0,0,0
2021-12-13T04:19:00+09:00,1,�k,2.1,�k�k��,6,87.7,0,0,0,0
2021-12-13T04:20:00+09:00,1,�k,2.1,�k�k��,5.9,88,0,0,0,0
2021-12-13T04:21:00+09:00,1,�k,2.1,�k�k��,6,88.6,0,0,0,0
2021-12-13T04:22:00+09:00,1,�k,2.1,�k�k��,6,89.3,0,0,0,0
2021-12-13T04:23:00+09:00,1,�k,2.1,�k�k��,6,89.6,0,0,0,0
2021-12-13T04:24:00+09:00,1,�k,1.9,�k,6,89.9,0,0,0,0
2021-12-13T04:25:00+09:00,1.1,�k,1.9,�k,6,89.9,0,0,0,0
2021-12-13T04:26:00+09:00,1.1,�k,1.9,�k,6,90,0,0,0,0
2021-12-13T04:27:00+09:00,1.1,�k,1.9,�k,6,90,0,0,0,0
2021-12-13T04:28:00+09:00,1,�k,1.9,�k,6,90.2,0,0,0,0
2021-12-13T04:29:00+09:00,1,�k,2.6,�k,5.9,90.1,0,0,0,0
2021-12-13T04:30:00+09:00,1.1,�k,2.7,�k,5.9,90.1,0,0,0,0
2021-12-13T04:31:00+09:00,1.2,�k,2.7,�k,5.9,90.1,0,0,0,0
2021-12-13T04:32:00+09:00,1.3,�k,2.7,�k,5.8,90.2,0,0,0,0
2021-12-13T04:33:00+09:00,1.4,�k,3.7,�k��,5.9,90.3,0,0,0,0
2021-12-13T04:34:00+09:00,1.5,�k�k��,3.7,�k��,6,90.4,0,0,0,0
2021-12-13T04:35:00+09:00,1.6,�k�k��,3.7,�k��,6,89.9,0,0,0,0
2021-12-13T04:36:00+09:00,1.8,�k�k��,3.7,�k��,6,89.3,0,0,0,0
2021-12-13T04:37:00+09:00,1.7,�k�k��,3.7,�k��,5.9,88.9,0,0,0,0
2021-12-13T04:38:00+09:00,1.8,�k�k��,3.7,�k��,5.9,88.9,0,0,0,0
2021-12-13T04:39:00+09:00,1.9,�k�k��,3.7,�k��,6,88.7,0,0,0,0
2021-12-13T04:40:00+09:00,1.9,�k�k��,3.7,�k��,6.1,88.5,0,0,0,0
2021-12-13T04:41:00+09:00,2.1,�k�k��,3.7,�k��,6.2,87.4,0,0,0,0
2021-12-13T04:42:00+09:00,2.1,�k�k��,3.7,�k��,6.2,86.1,0,0,0,0
2021-12-13T04:43:00+09:00,2,�k�k��,3.6,�k��,6.2,85.1,0,0,0,0
2021-12-13T04:44:00+09:00,1.9,�k�k��,3.6,�k��,6.1,84.8,0,0,0,0
2021-12-13T04:45:00+09:00,1.8,�k��,3.6,�k��,6.1,84.8,0,0,0,0
2021-12-13T04:46:00+09:00,1.8,�k��,3.6,�k��,6.2,84.8,0,0,0,0
2021-12-13T04:47:00+09:00,2.2,�k��,6.4,�k�k��,6.3,84.5,0,0,0,0
2021-12-13T04:48:00+09:00,2.4,�k��,6.4,�k�k��,6.4,83.2,0,0,0,0
2021-12-13T04:49:00+09:00,2.5,�k��,6.4,�k�k��,6.4,81.9,0,0,0,0
2021-12-13T04:50:00+09:00,2.6,�k��,6.4,�k�k��,6.3,81.4,0,0,0,0
2021-12-13T04:51:00+09:00,2.5,�k��,6.4,�k�k��,6.2,81.4,0,0,0,0
2021-12-13T04:52:00+09:00,2.6,�k��,6.4,�k�k��,6.2,82.5,0,0,0,0
2021-12-13T04:53:00+09:00,2.7,�k��,6.4,�k�k��,6.2,82.8,0,0,0,0
2021-12-13T04:54:00+09:00,2.7,�k��,6.4,�k�k��,6.3,82.4,0,0,0,0
2021-12-13T04:55:00+09:00,2.9,�k��,6.4,�k�k��,6.3,82.1,0,0,0,0
2021-12-13T04:56:00+09:00,2.9,�k��,6.4,�k�k��,6.4,81,0,0,0,0
2021-12-13T04:57:00+09:00,2.6,�k��,6.1,�k��,6.3,79.9,0,0,0,0
2021-12-13T04:58:00+09:00,2.6,�k��,4.4,���k��,6.4,79.8,0,0,0,0
2021-12-13T04:59:00+09:00,2.6,�k��,4.4,���k��,6.4,79.1,0,0,0,0
2021-12-13T05:00:00+09:00,2.5,�k��,4.4,���k��,6.3,79.4,0,0,0,0
2021-12-13T05:01:00+09:00,2.6,�k��,4.8,�k�k��,6.3,80,0,0,0,0
2021-12-13T05:02:00+09:00,2.6,�k��,4.8,�k�k��,6.3,80.3,0,0,0,0
2021-12-13T05:03:00+09:00,2.7,�k��,4.8,�k�k��,6.3,80.3,0,0,0,0
2021-12-13T05:04:00+09:00,2.7,�k��,4.8,�k�k��,6.2,80.8,0,0,0,0
2021-12-13T05:05:00+09:00,2.7,�k��,4.8,�k�k��,6.2,80.9,0,0,0,0
2021-12-13T05:06:00+09:00,2.6,�k��,4.8,�k�k��,6.2,81.3,0,0,0,0
2021-12-13T05:07:00+09:00,2.7,�k��,4.8,�k�k��,6.1,81.7,0,0,0,0
2021-12-13T05:08:00+09:00,2.7,�k��,5.2,���k��,6.1,82.1,0,0,0,0
2021-12-13T05:09:00+09:00,2.8,�k��,5.2,���k��,6.2,82.1,0,0,0,0
2021-12-13T05:10:00+09:00,2.8,���k��,5.2,���k��,6.2,81.9,0,0,0,0
2021-12-13T05:11:00+09:00,2.8,���k��,5.2,���k��,6.2,81.5,0,0,0,0
2021-12-13T05:12:00+09:00,2.7,���k��,5.2,���k��,6.2,81.2,0,0,0,0
2021-12-13T05:13:00+09:00,2.7,���k��,5.2,���k��,6.2,81.1,0,0,0,0
2021-12-13T05:14:00+09:00,2.7,���k��,5.2,���k��,6.2,81.2,0,0,0,0
2021-12-13T05:15:00+09:00,2.9,���k��,5.2,���k��,6.2,81,0,0,0,0
2021-12-13T05:16:00+09:00,2.9,���k��,5.2,���k��,6.3,80.9,0,0,0,0
2021-12-13T05:17:00+09:00,3.1,���k��,5.2,���k��,6.3,80.6,0,0,0,0
2021-12-13T05:18:00+09:00,3,�k��,4.9,���k��,6.3,80,0,0,0,0
2021-12-13T05:19:00+09:00,3,�k��,5.6,���k��,6.3,80,0,0,0,0
2021-12-13T05:20:00+09:00,3.2,�k��,5.6,���k��,6.2,80.3,0,0,0,0
2021-12-13T05:21:00+09:00,3.3,�k��,5.6,���k��,6.3,80.2,0,0,0,0
2021-12-13T05:22:00+09:00,3.4,�k��,5.6,���k��,6.3,79.5,0,0,0,0
2021-12-13T05:23:00+09:00,3.5,�k��,5.6,���k��,6.3,79.1,0,0,0,0
2021-12-13T05:24:00+09:00,3.6,�k��,5.6,���k��,6.4,78.6,0,0,0,0
2021-12-13T05:25:00+09:00,3.6,�k��,5.6,���k��,6.3,78.4,0,0,0,0
2021-12-13T05:26:00+09:00,3.6,�k��,5.6,���k��,6.3,78.6,0,0,0,0
2021-12-13T05:27:00+09:00,3.6,�k��,5.6,���k��,6.3,78.6,0,0,0,0
2021-12-13T05:28:00+09:00,3.7,�k��,5.8,���k��,6.3,78.6,0,0,0,0
2021-12-13T05:29:00+09:00,3.8,���k��,7.3,���k��,6.5,77.4,0,0,0,0
2021-12-13T05:30:00+09:00,3.9,�k��,7.3,���k��,6.5,76.2,0,0,0,0
2021-12-13T05:31:00+09:00,3.8,�k��,7.3,���k��,6.5,75.8,0,0,0,0
2021-12-13T05:32:00+09:00,3.6,���k��,7.3,���k��,6.4,76.2,0,0,0,0
2021-12-13T05:33:00+09:00,3.4,���k��,7.3,���k��,6.3,77.2,0,0,0,0
2021-12-13T05:34:00+09:00,3.2,���k��,7.3,���k��,6.3,78,0,0,0,0
2021-12-13T05:35:00+09:00,3.1,���k��,7.3,���k��,6.3,77.9,0,0,0,0
2021-12-13T05:36:00+09:00,3.1,���k��,7.3,���k��,6.2,78.4,0,0,0,0
2021-12-13T05:37:00+09:00,2.9,���k��,7.3,���k��,6.2,78.8,0,0,0,0
2021-12-13T05:38:00+09:00,2.6,���k��,7.3,���k��,6.2,79,0,0,0,0
2021-12-13T05:39:00+09:00,2.3,���k��,6.4,�k��,6.2,79.6,0,0,0,0
2021-12-13T05:40:00+09:00,2.1,���k��,4.7,���k��,6.1,80.3,0,0,0,0
2021-12-13T05:41:00+09:00,2,���k��,3.4,�k��,6.1,80.8,0,0,0,0
2021-12-13T05:42:00+09:00,1.9,�k��,3.4,�k��,6.1,80.8,0,0,0,0
2021-12-13T05:43:00+09:00,1.9,�k��,3.4,�k��,6.2,80.1,0,0,0,0
2021-12-13T05:44:00+09:00,2,�k��,3.4,�k��,6.2,79.3,0,0,0,0
2021-12-13T05:45:00+09:00,2,�k��,3.5,��,6.2,79.4,0,0,0,0
2021-12-13T05:46:00+09:00,2,�k��,3.5,��,6.3,79.2,0,0,0,0
2021-12-13T05:47:00+09:00,1.9,�k��,3.5,��,6.4,77.5,0,0,0,0
2021-12-13T05:48:00+09:00,2,�k��,3.5,��,6.3,76.8,0,0,0,0
2021-12-13T05:49:00+09:00,2.1,�k��,3.5,��,6.3,77.4,0,0,0,0
2021-12-13T05:50:00+09:00,2.1,���k��,3.5,��,6.2,77.9,0,0,0,0
2021-12-13T05:51:00+09:00,2.2,���k��,3.8,���k��,6.3,77.7,0,0,0,0
2021-12-13T05:52:00+09:00,2.3,���k��,5,��,6.4,76.5,0,0,0,0
2021-12-13T05:53:00+09:00,2.4,���k��,5,��,6.4,75.1,0,0,0,0
2021-12-13T05:54:00+09:00,2.4,���k��,5,��,6.4,75.1,0,0,0,0
2021-12-13T05:55:00+09:00,2.5,���k��,5,��,6.4,75.3,0,0,0,0
2021-12-13T05:56:00+09:00,2.5,���k��,5,��,6.3,75.4,0,0,0,0
2021-12-13T05:57:00+09:00,2.7,���k��,5,��,6.3,75.8,0,0,0,0
2021-12-13T05:58:00+09:00,2.7,���k��,5,��,6.4,75.5,0,0,0,0
2021-12-13T05:59:00+09:00,2.7,���k��,5,��,6.5,74.5,0,0,0,0
2021-12-13T06:00:00+09:00,2.7,���k��,5,��,6.4,74.2,0,0,0,0
2021-12-13T06:01:00+09:00,2.8,���k��,5,��,6.2,75,0,0,0,0
2021-12-13T06:02:00+09:00,2.8,�k��,3.9,�k��,6.1,76,0,0,0,0
2021-12-13T06:03:00+09:00,2.8,�k��,3.9,�k��,6,76.9,0,0,0,0
2021-12-13T06:04:00+09:00,2.7,�k��,3.9,�k��,5.9,77.8,0,0,0,0
2021-12-13T06:05:00+09:00,2.8,���k��,3.9,�k��,5.9,78.7,0,0,0,0
2021-12-13T06:06:00+09:00,2.7,���k��,3.9,�k��,5.9,79.2,0,0,0,0
2021-12-13T06:07:00+09:00,2.7,���k��,3.9,�k��,6.1,79,0,0,0,0
2021-12-13T06:08:00+09:00,2.7,���k��,3.8,���k��,6.2,78.2,0,0,0,0
2021-12-13T06:09:00+09:00,2.7,���k��,3.8,���k��,6.2,77.6,0,0,0,0
2021-12-13T06:10:00+09:00,2.7,���k��,3.8,���k��,6.3,76.7,0,0,0,0
2021-12-13T06:11:00+09:00,2.7,���k��,3.8,���k��,6.2,76.3,0,0,0,0
2021-12-13T06:12:00+09:00,2.8,���k��,4.1,�k��,6.2,76.3,0,0,0,0
2021-12-13T06:13:00+09:00,2.8,���k��,4.1,�k��,6.2,76.4,0,0,0,0
2021-12-13T06:14:00+09:00,2.8,���k��,4.1,�k��,6.1,77,0,0,0,0
2021-12-13T06:15:00+09:00,2.9,���k��,4.1,�k��,6.1,77.2,0,0,0,0
2021-12-13T06:16:00+09:00,2.9,���k��,4.1,�k��,6.1,77.2,0,0,0,0
2021-12-13T06:17:00+09:00,2.9,�k��,4.1,�k��,6,77.4,0,0,0,0
2021-12-13T06:18:00+09:00,2.9,�k��,4.1,�k��,5.8,78.9,0,0,0,0
2021-12-13T06:19:00+09:00,2.9,�k��,4.9,�k,5.8,80.2,0,0,0,0
2021-12-13T06:20:00+09:00,3,�k��,4.9,�k,5.9,80.9,0,0,0,0
2021-12-13T06:21:00+09:00,2.9,�k��,4.9,�k,6,80.4,0,0,0,0
2021-12-13T06:22:00+09:00,2.8,�k��,4.9,�k,6,79.8,0,0,0,0
2021-12-13T06:23:00+09:00,2.8,�k�k��,4.9,�k,5.9,79.7,0,0,0,0
2021-12-13T06:24:00+09:00,2.8,�k�k��,4.9,�k,5.9,79.8,0,0,0,0
2021-12-13T06:25:00+09:00,2.7,�k�k��,4.9,�k,5.9,79.6,0,0,0,0
2021-12-13T06:26:00+09:00,2.6,�k��,4.9,�k,5.9,79.3,0,0,0,0
2021-12-13T06:27:00+09:00,2.6,�k��,4.9,�k,5.8,79.8,0,0,0,0
2021-12-13T06:28:00+09:00,2.6,�k��,4.9,�k,5.8,80.1,0,0,0,0
2021-12-13T06:29:00+09:00,2.6,�k��,4.7,�k�k��,5.8,80.1,0,0,0,0
2021-12-13T06:30:00+09:00,2.5,�k��,4.7,�k�k��,5.8,79.8,0,0,0,0